Time,TemperatureF,DewpointF,PressureIn,WindDirection,WindDirectionDegrees,WindSpeedMPH,WindSpeedGustMPH,Humidity,HourlyPrecipIn,Conditions,Clouds,dailyrainin,SoftwareType,DateUTC
2013-04-29 00:03:00,52.0,32.0,-100.00,SW,230,1.0,3.0,46,0.00,,,-99.99,,2013-04-29 04:03:00,
2013-04-29 00:13:00,52.0,32.0,-100.00,ENE,75,1.0,5.0,45,0.00,,,-99.99,,2013-04-29 04:13:00,
2013-04-29 00:23:00,52.0,32.0,-100.00,North,10,1.0,4.0,47,0.00,,,-99.99,,2013-04-29 04:23:00,
2013-04-29 00:33:00,51.0,38.0,-100.00,ENE,75,1.0,4.0,61,0.00,,,-99.99,,2013-04-29 04:33:00,
2013-04-29 00:43:00,49.0,40.0,-100.00,North,5,1.0,3.0,70,0.00,,,-99.99,,2013-04-29 04:43:00,
2013-04-29 00:52:00,49.0,40.0,-100.00,ENE,70,1.0,4.0,70,0.00,,,-99.99,,2013-04-29 04:52:00,
2013-04-29 01:02:00,48.0,40.0,-100.00,NNW,345,1.0,3.0,72,0.00,,,-99.99,,2013-04-29 05:02:00,
2013-04-29 01:12:00,47.0,39.0,-100.00,West,265,1.0,1.0,71,0.00,,,-99.99,,2013-04-29 05:12:00,
2013-04-29 01:22:00,47.0,38.0,-100.00,NNW,335,2.0,2.0,71,0.00,,,-99.99,,2013-04-29 05:22:00,
2013-04-29 01:32:00,46.0,37.0,-100.00,West,270,1.0,3.0,70,0.00,,,-99.99,,2013-04-29 05:32:00,
2013-04-29 01:42:00,46.0,37.0,-100.00,NW,325,2.0,2.0,71,0.00,,,-99.99,,2013-04-29 05:42:00,
2013-04-29 01:52:00,46.0,38.0,-100.00,North,0,1.0,3.0,72,0.00,,,-99.99,,2013-04-29 05:52:00,
2013-04-29 02:02:00,45.0,37.0,-100.00,WNW,295,1.0,2.0,73,0.00,,,-99.99,,2013-04-29 06:02:00,
2013-04-29 02:11:00,45.0,37.0,-100.00,West,275,1.0,2.0,74,0.00,,,-99.99,,2013-04-29 06:11:00,
2013-04-29 02:21:00,45.0,37.0,-100.00,NNE,25,1.0,1.0,75,0.00,,,-99.99,,2013-04-29 06:21:00,
2013-04-29 02:32:00,44.0,37.0,-100.00,West,270,1.0,1.0,76,0.00,,,-99.99,,2013-04-29 06:32:00,
2013-04-29 02:42:00,44.0,38.0,-100.00,WSW,245,0.0,1.0,78,0.00,,,-99.99,,2013-04-29 06:42:00,
2013-04-29 02:52:00,43.0,37.0,-100.00,SW,235,1.0,1.0,78,0.00,,,-99.99,,2013-04-29 06:52:00,
2013-04-29 03:01:00,43.0,37.0,-100.00,SW,225,1.0,2.0,79,0.00,,,-99.99,,2013-04-29 07:01:00,
2013-04-29 03:11:00,43.0,37.0,-100.00,SW,215,1.0,1.0,79,0.00,,,-99.99,,2013-04-29 07:11:00,
2013-04-29 03:21:00,42.0,37.0,-100.00,SW,235,1.0,1.0,79,0.00,,,-99.99,,2013-04-29 07:21:00,
2013-04-29 03:32:00,42.0,37.0,-100.00,SW,235,1.0,1.0,79,0.00,,,-99.99,,2013-04-29 07:32:00,
2013-04-29 03:42:00,42.0,37.0,-100.00,SW,235,1.0,1.0,79,0.00,,,-99.99,,2013-04-29 07:42:00,
2013-04-29 03:52:00,41.0,36.0,-100.00,WSW,255,1.0,1.0,80,0.00,,,-99.99,,2013-04-29 07:52:00,
2013-04-29 04:03:00,41.0,36.0,-100.00,NNW,335,0.0,1.0,81,0.00,,,-99.99,,2013-04-29 08:03:00,
2013-04-29 04:11:00,41.0,36.0,-100.00,SW,235,1.0,1.0,81,0.00,,,-99.99,,2013-04-29 08:11:00,
2013-04-29 04:22:00,40.0,35.0,-100.00,WSW,245,1.0,1.0,82,0.00,,,-99.99,,2013-04-29 08:22:00,
2013-04-29 04:32:00,40.0,35.0,-100.00,SW,225,1.0,1.0,81,0.00,,,-99.99,,2013-04-29 08:32:00,
2013-04-29 04:42:00,40.0,35.0,-100.00,SSE,155,0.0,1.0,81,0.00,,,-99.99,,2013-04-29 08:42:00,
2013-04-29 04:51:00,40.0,35.0,-100.00,SW,215,0.0,1.0,81,0.00,,,-99.99,,2013-04-29 08:51:00,
2013-04-29 05:01:00,40.0,35.0,-100.00,SW,230,1.0,1.0,82,0.00,,,-99.99,,2013-04-29 09:01:00,
2013-04-29 05:12:00,39.0,35.0,-100.00,West,265,1.0,1.0,83,0.00,,,-99.99,,2013-04-29 09:12:00,
2013-04-29 05:21:00,39.0,35.0,-100.00,South,185,0.0,1.0,82,0.00,,,-99.99,,2013-04-29 09:21:00,
2013-04-29 05:33:00,39.0,35.0,-100.00,WSW,250,1.0,1.0,83,0.00,,,-99.99,,2013-04-29 09:33:00,
2013-04-29 05:42:00,39.0,35.0,-100.00,SW,230,1.0,1.0,84,0.00,,,-99.99,,2013-04-29 09:42:00,
2013-04-29 05:52:00,39.0,34.0,-100.00,West,270,1.0,1.0,84,0.00,,,-99.99,,2013-04-29 09:52:00,
2013-04-29 06:02:00,39.0,35.0,-100.00,NNW,345,0.0,1.0,85,0.00,,,-99.99,,2013-04-29 10:02:00,
2013-04-29 06:12:00,39.0,35.0,-100.00,SSE,150,0.0,1.0,85,0.00,,,-99.99,,2013-04-29 10:12:00,
2013-04-29 06:23:00,39.0,35.0,-100.00,SW,235,1.0,1.0,85,0.00,,,-99.99,,2013-04-29 10:23:00,
2013-04-29 06:32:00,39.0,35.0,-100.00,South,190,1.0,1.0,86,0.00,,,-99.99,,2013-04-29 10:32:00,
2013-04-29 06:42:00,39.0,35.0,-100.00,WSW,245,0.0,2.0,86,0.00,,,-99.99,,2013-04-29 10:42:00,
2013-04-29 06:52:00,39.0,35.0,-100.00,SW,230,1.0,1.0,86,0.00,,,-99.99,,2013-04-29 10:52:00,
2013-04-29 07:03:00,40.0,36.0,-100.00,ENE,70,0.0,1.0,85,0.00,,,-99.99,,2013-04-29 11:03:00,
2013-04-29 07:12:00,42.0,37.0,-100.00,SW,220,0.0,1.0,82,0.00,,,-99.99,,2013-04-29 11:12:00,
2013-04-29 07:21:00,43.0,37.0,-100.00,ENE,65,1.0,2.0,80,0.00,,,-99.99,,2013-04-29 11:21:00,
2013-04-29 07:32:00,42.0,36.0,-100.00,North,10,1.0,2.0,78,0.00,,,-99.99,,2013-04-29 11:32:00,
2013-04-29 07:42:00,43.0,37.0,-100.00,NNE,15,1.0,2.0,77,0.00,,,-99.99,,2013-04-29 11:42:00,
2013-04-29 07:52:00,45.0,37.0,-100.00,North,0,0.0,2.0,74,0.00,,,-99.99,,2013-04-29 11:52:00,
2013-04-29 08:01:00,45.0,37.0,-100.00,NNE,15,2.0,2.0,73,0.00,,,-99.99,,2013-04-29 12:01:00,
2013-04-29 08:12:00,45.0,37.0,-100.00,North,355,1.0,2.0,74,0.00,,,-99.99,,2013-04-29 12:12:00,
2013-04-29 08:22:00,45.0,37.0,-100.00,NNE,15,1.0,2.0,72,0.00,,,-99.99,,2013-04-29 12:22:00,
2013-04-29 08:32:00,46.0,38.0,-100.00,North,5,1.0,2.0,71,0.00,,,-99.99,,2013-04-29 12:32:00,
2013-04-29 08:42:00,48.0,38.0,-100.00,East,90,1.0,2.0,68,0.00,,,-99.99,,2013-04-29 12:42:00,
2013-04-29 08:52:00,47.0,38.0,-100.00,North,10,2.0,2.0,70,0.00,,,-99.99,,2013-04-29 12:52:00,
2013-04-29 09:01:00,48.0,38.0,-100.00,NNW,345,1.0,2.0,68,0.00,,,-99.99,,2013-04-29 13:01:00,
2013-04-29 09:11:00,49.0,37.0,-100.00,ESE,105,1.0,2.0,64,0.00,,,-99.99,,2013-04-29 13:11:00,
2013-04-29 09:21:00,50.0,36.0,-100.00,ENE,65,1.0,3.0,59,0.00,,,-99.99,,2013-04-29 13:21:00,
2013-04-29 09:32:00,51.0,36.0,-100.00,ESE,110,2.0,3.0,56,0.00,,,-99.99,,2013-04-29 13:32:00,
2013-04-29 09:42:00,54.0,34.0,-100.00,SW,220,1.0,3.0,46,0.00,,,-99.99,,2013-04-29 13:42:00,
2013-04-29 09:52:00,54.0,34.0,-100.00,West,270,1.0,5.0,46,0.00,,,-99.99,,2013-04-29 13:52:00,
2013-04-29 10:02:00,55.0,34.0,-100.00,East,85,0.0,2.0,45,0.00,,,-99.99,,2013-04-29 14:02:00,
2013-04-29 10:11:00,55.0,33.0,-100.00,SSW,200,2.0,5.0,43,0.00,,,-99.99,,2013-04-29 14:11:00,
2013-04-29 10:21:00,56.0,33.0,-100.00,NNW,340,1.0,6.0,43,0.00,,,-99.99,,2013-04-29 14:21:00,
2013-04-29 10:32:00,56.0,34.0,-100.00,WSW,255,1.0,4.0,42,0.00,,,-99.99,,2013-04-29 14:32:00,
2013-04-29 10:42:00,56.0,33.0,-100.00,East,90,1.0,4.0,42,0.00,,,-99.99,,2013-04-29 14:42:00,
2013-04-29 10:52:00,57.0,34.0,-100.00,East,90,2.0,3.0,41,0.00,,,-99.99,,2013-04-29 14:52:00,
2013-04-29 11:01:00,55.0,34.0,-100.00,ESE,115,3.0,4.0,44,0.00,,,-99.99,,2013-04-29 15:01:00,
2013-04-29 11:12:00,56.0,34.0,-100.00,ENE,65,2.0,4.0,42,0.00,,,-99.99,,2013-04-29 15:12:00,
2013-04-29 11:21:00,57.0,35.0,-100.00,ESE,105,1.0,6.0,44,0.00,,,-99.99,,2013-04-29 15:21:00,
2013-04-29 11:33:00,58.0,34.0,-100.00,East,90,1.0,6.0,39,0.00,,,-99.99,,2013-04-29 15:33:00,
2013-04-29 11:42:00,59.0,37.0,-100.00,East,100,4.0,6.0,43,0.00,,,-99.99,,2013-04-29 15:42:00,
2013-04-29 11:53:00,61.0,36.0,-100.00,NE,55,2.0,6.0,39,0.00,,,-99.99,,2013-04-29 15:53:00,
2013-04-29 12:03:00,61.0,35.0,-100.00,East,85,2.0,7.0,37,0.00,,,-99.99,,2013-04-29 16:03:00,
2013-04-29 12:12:00,63.0,37.0,-100.00,NW,320,2.0,6.0,37,0.00,,,-99.99,,2013-04-29 16:12:00,
2013-04-29 12:23:00,65.0,32.0,-100.00,SE,140,2.0,9.0,28,0.00,,,-99.99,,2013-04-29 16:23:00,
2013-04-29 12:33:00,66.0,32.0,-100.00,WNW,285,3.0,9.0,28,0.00,,,-99.99,,2013-04-29 16:33:00,
2013-04-29 12:42:00,66.0,34.0,-100.00,SSW,200,2.0,7.0,30,0.00,,,-99.99,,2013-04-29 16:42:00,
2013-04-29 12:52:00,66.0,33.0,-100.00,NW,320,6.0,10.0,28,0.00,,,-99.99,,2013-04-29 16:52:00,
2013-04-29 13:02:00,66.0,33.0,-100.00,SSE,155,6.0,9.0,29,0.00,,,-99.99,,2013-04-29 17:02:00,
2013-04-29 13:12:00,66.0,34.0,-100.00,South,190,5.0,11.0,29,0.00,,,-99.99,,2013-04-29 17:12:00,
2013-04-29 13:22:00,67.0,34.0,-100.00,WNW,295,4.0,10.0,29,0.00,,,-99.99,,2013-04-29 17:22:00,
2013-04-29 13:32:00,67.0,33.0,-100.00,West,270,2.0,9.0,27,0.00,,,-99.99,,2013-04-29 17:32:00,
2013-04-29 13:42:00,67.0,34.0,-100.00,SSE,155,4.0,9.0,29,0.00,,,-99.99,,2013-04-29 17:42:00,
2013-04-29 13:52:00,68.0,32.0,-100.00,West,260,2.0,9.0,26,0.00,,,-99.99,,2013-04-29 17:52:00,
2013-04-29 14:01:00,68.0,33.0,-100.00,WNW,295,4.0,11.0,27,0.00,,,-99.99,,2013-04-29 18:01:00,
2013-04-29 14:13:00,69.0,35.0,-100.00,SW,215,4.0,8.0,27,0.00,,,-99.99,,2013-04-29 18:13:00,
2013-04-29 14:22:00,69.0,33.0,-100.00,West,260,4.0,11.0,26,0.00,,,-99.99,,2013-04-29 18:22:00,
2013-04-29 14:32:00,70.0,35.0,-100.00,SSE,165,1.0,12.0,27,0.00,,,-99.99,,2013-04-29 18:32:00,
2013-04-29 14:42:00,70.0,33.0,-100.00,West,270,3.0,7.0,26,0.00,,,-99.99,,2013-04-29 18:42:00,
2013-04-29 14:51:00,70.0,33.0,-100.00,West,260,2.0,9.0,25,0.00,,,-99.99,,2013-04-29 18:51:00,
2013-04-29 15:01:00,70.0,34.0,-100.00,West,265,5.0,9.0,26,0.00,,,-99.99,,2013-04-29 19:01:00,
2013-04-29 15:11:00,70.0,35.0,-100.00,SSW,210,4.0,12.0,26,0.00,,,-99.99,,2013-04-29 19:11:00,
2013-04-29 15:21:00,70.0,35.0,-100.00,West,275,2.0,10.0,27,0.00,,,-99.99,,2013-04-29 19:21:00,
2013-04-29 15:32:00,69.0,35.0,-100.00,SW,235,4.0,9.0,28,0.00,,,-99.99,,2013-04-29 19:32:00,
2013-04-29 15:41:00,70.0,34.0,-100.00,WSW,240,6.0,9.0,26,0.00,,,-99.99,,2013-04-29 19:41:00,
2013-04-29 15:52:00,70.0,35.0,-100.00,WSW,240,4.0,8.0,28,0.00,,,-99.99,,2013-04-29 19:52:00,
2013-04-29 16:02:00,70.0,35.0,-100.00,WSW,245,3.0,12.0,27,0.00,,,-99.99,,2013-04-29 20:02:00,
2013-04-29 16:12:00,69.0,35.0,-100.00,WSW,255,4.0,9.0,29,0.00,,,-99.99,,2013-04-29 20:12:00,
2013-04-29 16:21:00,67.0,35.0,-100.00,WSW,250,2.0,7.0,30,0.00,,,-99.99,,2013-04-29 20:21:00,
2013-04-29 16:32:00,67.0,36.0,-100.00,WSW,250,2.0,8.0,31,0.00,,,-99.99,,2013-04-29 20:32:00,
2013-04-29 16:42:00,67.0,36.0,-100.00,WSW,250,2.0,7.0,31,0.00,,,-99.99,,2013-04-29 20:42:00,
2013-04-29 16:52:00,67.0,35.0,-100.00,WNW,300,1.0,7.0,31,0.00,,,-99.99,,2013-04-29 20:52:00,
2013-04-29 17:01:00,66.0,36.0,-100.00,SW,230,2.0,8.0,32,0.00,,,-99.99,,2013-04-29 21:01:00,
2013-04-29 17:11:00,65.0,34.0,-100.00,WSW,240,1.0,4.0,31,0.00,,,-99.99,,2013-04-29 21:11:00,
2013-04-29 17:21:00,65.0,36.0,-100.00,WNW,290,1.0,9.0,32,0.00,,,-99.99,,2013-04-29 21:21:00,
2013-04-29 17:33:00,66.0,36.0,-100.00,WSW,240,1.0,4.0,33,0.00,,,-99.99,,2013-04-29 21:33:00,
2013-04-29 17:42:00,66.0,35.0,-100.00,SW,215,2.0,4.0,31,0.00,,,-99.99,,2013-04-29 21:42:00,
2013-04-29 17:53:00,66.0,36.0,-100.00,West,270,1.0,6.0,33,0.00,,,-99.99,,2013-04-29 21:53:00,
2013-04-29 18:02:00,65.0,35.0,-100.00,WSW,255,2.0,7.0,32,0.00,,,-99.99,,2013-04-29 22:02:00,
2013-04-29 18:13:00,65.0,36.0,-100.00,WSW,240,1.0,7.0,33,0.00,,,-99.99,,2013-04-29 22:13:00,
2013-04-29 18:23:00,65.0,36.0,-100.00,SW,235,2.0,6.0,33,0.00,,,-99.99,,2013-04-29 22:23:00,
2013-04-29 18:32:00,65.0,36.0,-100.00,West,265,1.0,4.0,34,0.00,,,-99.99,,2013-04-29 22:32:00,
2013-04-29 18:42:00,65.0,36.0,-100.00,SW,230,2.0,6.0,34,0.00,,,-99.99,,2013-04-29 22:42:00,
2013-04-29 18:52:00,65.0,36.0,-100.00,SW,225,2.0,6.0,33,0.00,,,-99.99,,2013-04-29 22:52:00,
2013-04-29 19:02:00,64.0,36.0,-100.00,SSW,210,4.0,11.0,34,0.00,,,-99.99,,2013-04-29 23:02:00,
2013-04-29 19:11:00,64.0,36.0,-100.00,West,265,2.0,6.0,35,0.00,,,-99.99,,2013-04-29 23:11:00,
2013-04-29 19:22:00,64.0,35.0,-100.00,WSW,240,2.0,6.0,34,0.00,,,-99.99,,2013-04-29 23:22:00,
2013-04-29 19:32:00,63.0,36.0,-100.00,WSW,245,2.0,6.0,35,0.00,,,-99.99,,2013-04-29 23:32:00,
2013-04-29 19:42:00,63.0,35.0,-100.00,SW,220,2.0,7.0,35,0.00,,,-99.99,,2013-04-29 23:42:00,
2013-04-29 19:52:00,62.0,35.0,-100.00,WSW,255,3.0,7.0,35,0.00,,,-99.99,,2013-04-29 23:52:00,
2013-04-29 20:01:00,62.0,35.0,-100.00,WSW,245,2.0,7.0,35,0.00,,,-99.99,,2013-04-30 00:01:00,
2013-04-29 20:11:00,62.0,35.0,-100.00,SW,235,1.0,4.0,36,0.00,,,-99.99,,2013-04-30 00:11:00,
2013-04-29 20:21:00,61.0,35.0,-100.00,WSW,245,1.0,6.0,37,0.00,,,-99.99,,2013-04-30 00:21:00,
2013-04-29 20:32:00,60.0,35.0,-100.00,SSW,205,1.0,4.0,38,0.00,,,-99.99,,2013-04-30 00:32:00,
2013-04-29 20:42:00,60.0,35.0,-100.00,SW,230,1.0,4.0,39,0.00,,,-99.99,,2013-04-30 00:42:00,
2013-04-29 20:51:00,59.0,36.0,-100.00,WSW,240,1.0,3.0,41,0.00,,,-99.99,,2013-04-30 00:51:00,
2013-04-29 21:02:00,59.0,36.0,-100.00,SW,225,1.0,3.0,41,0.00,,,-99.99,,2013-04-30 01:02:00,
2013-04-29 21:11:00,58.0,36.0,-100.00,SW,220,1.0,2.0,43,0.00,,,-99.99,,2013-04-30 01:11:00,
2013-04-29 21:22:00,58.0,36.0,-100.00,WSW,245,1.0,2.0,43,0.00,,,-99.99,,2013-04-30 01:22:00,
2013-04-29 21:32:00,58.0,36.0,-100.00,WNW,300,1.0,4.0,43,0.00,,,-99.99,,2013-04-30 01:32:00,
2013-04-29 21:41:00,58.0,36.0,-100.00,WSW,245,2.0,4.0,44,0.00,,,-99.99,,2013-04-30 01:41:00,
2013-04-29 21:51:00,58.0,36.0,-100.00,WSW,245,1.0,6.0,43,0.00,,,-99.99,,2013-04-30 01:51:00,
2013-04-29 22:01:00,58.0,36.0,-100.00,West,275,1.0,4.0,44,0.00,,,-99.99,,2013-04-30 02:01:00,
2013-04-29 22:11:00,57.0,36.0,-100.00,WSW,250,1.0,4.0,45,0.00,,,-99.99,,2013-04-30 02:11:00,
2013-04-29 22:21:00,57.0,37.0,-100.00,WSW,240,1.0,2.0,46,0.00,,,-99.99,,2013-04-30 02:21:00,
2013-04-29 22:31:00,57.0,36.0,-100.00,SW,235,1.0,4.0,45,0.00,,,-99.99,,2013-04-30 02:31:00,
2013-04-29 22:41:00,56.0,38.0,-100.00,SW,230,1.0,2.0,50,0.00,,,-99.99,,2013-04-30 02:41:00,
2013-04-29 22:51:00,55.0,37.0,-100.00,WSW,255,0.0,1.0,50,0.00,,,-99.99,,2013-04-30 02:51:00,
2013-04-29 23:01:00,55.0,38.0,-100.00,SW,215,1.0,1.0,52,0.00,,,-99.99,,2013-04-30 03:01:00,
2013-04-29 23:11:00,55.0,37.0,-100.00,SW,235,1.0,3.0,49,0.00,,,-99.99,,2013-04-30 03:11:00,
2013-04-29 23:21:00,55.0,37.0,-100.00,SW,235,1.0,3.0,51,0.00,,,-99.99,,2013-04-30 03:21:00,
2013-04-29 23:33:00,56.0,36.0,-100.00,SW,225,1.0,4.0,48,0.00,,,-99.99,,2013-04-30 03:33:00,
2013-04-29 23:42:00,56.0,36.0,-100.00,WSW,245,1.0,6.0,46,0.00,,,-99.99,,2013-04-30 03:42:00,
2013-04-29 23:52:00,56.0,35.0,-100.00,SSW,205,2.0,4.0,45,0.00,,,-99.99,,2013-04-30 03:52:00,